CAPE
0 0 0 0 0 0 0 0 0 0 0 0 0 0 0 0 0 0 0 0 0 0 0 0 0 0 0 0 0 0 0 0 0 0 0 0 0 282 1028 1188 1331 1495 1632 1819 1915 1928 1883 1806 1739 1710 1671 1615 1580 1546 1472 1418 1352 1241 1079 1158 1275 1351 1402 1385 1340 1319 1272 1237 1254 1261 1106 1034 1041 1147 1179 1087 815 578 658 726 746 814 984 1054 1032 1035
0 0 0 0 0 0 0 0 0 0 0 0 0 0 0 0 0 0 0 0 0 0 0 0 0 0 0 0 0 0 0 0 0 0 0 0 0 51 773 1174 1288 1413 1612 1813 1823 1900 1782 1744 1694 1687 1641 1599 1540 1510 1493 1475 1435 1350 1144 1148 1295 1327 1441 1432 1349 1302 1302 1319 1432 1351 1072 928 1132 1215 1169 1010 961 796 804 802 780 802 915 964 996 1134
0 0 0 0 0 0 0 0 0 0 0 0 0 0 0 0 0 0 0 0 0 0 0 0 0 0 0 0 0 0 0 0 0 0 0 0 0 0 459 1011 1234 1402 1604 1691 1692 1758 1809 1753 1755 1697 1636 1582 1574 1544 1484 1498 1434 1352 1218 1195 1372 1433 1451 1461 1382 1312 1350 1455 1521 1411 1072 947 1204 1294 1238 1042 1019 1028 989 932 870 845 924 984 1090 1249
0 0 0 0 0 0 0 0 0 0 0 0 0 0 0 0 0 0 0 0 0 0 0 0 0 0 0 0 0 0 0 0 0 0 0 0 0 0 68 728 1128 1377 1500 1606 1711 1794 1784 1794 1772 1716 1635 1605 1565 1508 1488 1496 1485 1451 1326 1258 1450 1524 1446 1447 1409 1349 1390 1452 1479 1475 1126 998 1154 1318 1274 1195 1146 1070 961 904 919 951 982 1066 1204 1395
0 0 0 0 0 0 0 0 0 0 0 0 0 0 0 0 0 0 0 0 0 0 0 0 0 0 0 0 0 0 0 0 0 0 0 0 0 0 0 439 987 1221 1459 1543 1712 1843 1852 1831 1784 1758 1752 1719 1586 1510 1515 1521 1520 1500 1437 1344 1455 1535 1450 1375 1366 1348 1352 1376 1422 1495 1266 1078 1163 1258 1254 1192 1158 1105 949 888 888 946 1024 1162 1307 1449
0 0 0 0 0 0 0 0 0 0 0 0 0 0 0 0 0 0 0 0 0 0 0 0 0 0 0 0 0 0 0 0 0 0 0 0 0 0 0 26 883 1232 1348 1482 1653 1827 1906 1897 1894 1884 1855 1731 1616 1562 1556 1573 1551 1535 1479 1380 1467 1566 1478 1270 1310 1352 1371 1396 1433 1462 1340 1248 1261 1251 1218 1166 1097 1041 929 864 939 1041 1163 1317 1454 1513
0 0 0 0 0 0 0 0 0 0 0 0 0 0 0 0 0 0 0 0 0 0 0 0 0 0 0 0 0 0 0 0 0 0 0 0 0 0 0 0 525 1220 1420 1503 1601 1781 1907 1955 1963 1950 1881 1808 1731 1690 1688 1620 1564 1564 1512 1444 1503 1594 1519 1275 1229 1338 1406 1431 1438 1411 1316 1267 1272 1229 1210 1180 1106 1000 933 990 1061 1188 1307 1449 1593 1529
0 0 0 0 0 0 0 0 0 0 0 0 0 0 0 0 0 0 0 0 0 0 0 0 0 0 0 0 0 0 0 0 0 0 0 0 0 0 0 0 93 1082 1403 1532 1633 1748 1849 1967 2022 1985 1929 1886 1835 1820 1734 1618 1608 1620 1588 1529 1561 1599 1549 1360 1162 1294 1398 1435 1400 1340 1263 1238 1259 1182 1173 1163 1120 1008 939 1053 1153 1253 1348 1486 1567 1525
0 0 0 0 0 0 0 0 0 0 0 0 0 0 0 0 0 0 0 0 0 0 0 0 0 0 0 0 0 0 0 0 0 0 0 0 0 0 0 0 0 533 1359 1518 1604 1711 1838 1961 2035 2041 1988 1944 1953 1850 1722 1650 1662 1685 1621 1551 1533 1581 1609 1433 1330 1261 1371 1407 1365 1265 1203 1200 1194 1163 1147 1114 1093 1060 1005 1023 1198 1258 1290 1376 1413 1321
0 0 0 0 0 0 0 0 0 0 0 0 0 0 0 0 0 0 0 0 0 0 0 0 0 0 0 0 0 0 0 0 0 0 0 0 0 0 0 0 0 30 1117 1557 1625 1695 1843 1969 2072 2108 2046 2035 1993 1902 1783 1750 1735 1662 1602 1576 1549 1591 1680 1579 1410 1328 1380 1404 1340 1239 1194 1185 1172 1142 1134 1112 1093 1064 1032 1038 1176 1193 1186 1201 1208 1148
0 0 0 0 0 4 1 2 0 0 0 0 0 0 0 0 0 0 0 0 0 0 0 0 0 0 0 0 0 0 0 0 0 0 0 0 0 0 0 0 0 3 671 1457 1643 1708 1790 1947 2066 2099 2066 2002 1994 1949 1861 1798 1697 1671 1640 1605 1580 1637 1754 1654 1520 1436 1420 1396 1357 1254 1203 1202 1173 1124 1122 1104 1110 1056 1008 1008 1118 1116 1081 1083 1134 1093
0 0 0 0 0 0 0 0 0 0 0 0 0 0 0 0 0 0 0 0 0 0 0 0 0 0 0 0 0 0 0 0 0 0 0 0 0 0 0 0 0 0 458 1374 1642 1717 1793 1931 2020 2026 1994 1972 1945 1896 1824 1813 1751 1743 1710 1688 1673 1708 1799 1737 1596 1519 1382 1354 1343 1295 1233 1210 1171 1140 1134 1143 1116 1069 1015 971 1036 1044 1014 1054 1094 1085
0 0 0 0 0 0 0 0 0 0 0 0 0 0 0 0 0 0 0 0 0 0 0 0 0 0 0 0 0 0 0 0 0 0 0 0 0 0 0 0 0 0 224 1292 1680 1738 1805 1875 1966 1993 1970 1924 1851 1838 1859 1840 1883 1879 1842 1806 1796 1830 1849 1796 1664 1614 1463 1337 1328 1314 1274 1235 1187 1150 1137 1133 1107 1059 1018 980 1012 1023 1035 1055 1072 1084
0 0 0 0 0 0 0 0 0 0 0 0 0 0 0 0 0 0 0 0 0 0 0 0 0 0 0 0 0 0 0 0 0 0 0 0 0 0 0 0 0 0 45 1078 1712 1842 1848 1885 1956 1990 1976 1941 1932 1950 1988 1947 1924 1946 1920 1948 1930 1920 1893 1821 1704 1682 1535 1325 1303 1309 1330 1293 1230 1183 1156 1150 1115 1082 1033 1003 1004 1020 1038 1062 1080 1080
0 0 0 0 0 0 0 0 0 0 0 1 1 3 0 0 0 0 0 0 0 0 0 0 0 0 0 0 0 0 0 0 0 0 0 0 0 0 0 0 0 0 0 542 1711 1897 1889 1926 1965 1962 1933 1944 1997 2048 2055 2002 1949 2022 2002 2042 1986 1950 1924 1840 1760 1698 1594 1359 1286 1301 1312 1320 1256 1182 1171 1177 1152 1114 1080 1056 1004 1007 1029 1058 1073 1069
0 0 0 0 0 0 0 0 0 0 0 0 0 0 0 0 0 0 0 0 0 4 0 0 0 0 0 0 0 0 0 0 0 0 0 0 0 0 0 0 0 0 0 80 1362 2020 2000 1984 1990 1927 1887 1912 1997 2074 2064 2010 1968 1989 2098 2054 1994 1967 1946 1857 1765 1733 1650 1418 1308 1306 1308 1273 1194 1154 1161 1184 1186 1160 1129 1098 1032 982 1010 1052 1055 1025
0 0 0 0 0 0 0 0 0 0 0 0 0 0 0 0 0 4 0 9 0 0 0 0 0 0 0 0 0 8 0 0 0 0 0 0 0 0 0 0 0 0 0 0 842 1936 2146 2099 2034 1940 1875 1900 1951 2001 1996 1991 2011 2030 2057 2016 1946 1952 1932 1844 1789 1776 1672 1476 1301 1325 1303 1245 1193 1180 1178 1174 1164 1170 1157 1140 1087 937 963 1011 1033 1013
0 0 4 0 0 0 0 0 0 0 0 0 0 0 0 111 2 0 1 30 5 6 0 13 30 48 20 0 0 72 18 0 0 0 0 0 0 0 0 0 0 0 0 0 290 1690 2178 2217 2117 2020 1942 1916 1914 1940 1965 2067 2112 2054 1998 1867 1907 1926 1912 1860 1799 1764 1696 1505 1352 1291 1273 1229 1220 1216 1191 1168 1156 1147 1154 1139 1099 1006 916 957 986 982
0 0 0 1 0 0 0 0 0 0 0 0 0 46 0 6 2 116 0 0 0 0 0 0 38 57 31 0 50 60 34 36 50 94 52 88 124 126 92 0 0 0 0 0 0 1268 2038 2186 2174 2117 2039 2002 1993 1962 1982 2092 2098 1990 1896 1807 1858 1841 1864 1852 1797 1768 1677 1598 1445 1254 1214 1189 1185 1183 1175 1160 1129 1132 1139 1154 1091 1012 915 898 887 884
0 0 0 0 0 0 0 0 3 1 0 0 0 0 0 1 0 30 0 102 22 8 4 5 10 0 0 0 29 155 202 122 146 150 118 89 91 86 110 53 0 0 0 0 1 746 1765 2107 2202 2199 2162 2123 2071 2015 2021 2027 1984 1878 1848 1813 1809 1818 1788 1808 1831 1796 1745 1625 1486 1287 1147 1108 1087 1145 1160 1148 1132 1148 1177 1164 1098 995 913 875 828 706
0 0 1 0 0 0 0 0 0 1 0 0 0 0 0 0 97 11 80 0 0 19 22 1 2 6 0 68 50 64 131 120 178 163 125 64 15 0 14 86 73 19 0 0 0 485 1417 1971 2182 2232 2246 2216 2175 2122 2058 1982 1896 1843 1804 1754 1756 1739 1760 1843 1902 1797 1716 1625 1538 1327 1232 1182 1141 1195 1198 1180 1168 1178 1194 1164 1072 980 911 861 848 748
0 0 1 1 0 1 1 0 0 1 0 0 0 0 0 0 20 0 4 9 0 0 0 4 0 38 162 97 62 32 53 145 158 145 110 48 1 0 0 11 72 0 0 0 5 426 1152 1739 2095 2241 2282 2288 2222 2115 2010 1871 1838 1803 1711 1692 1695 1685 1741 1878 1950 1836 1703 1620 1560 1407 1290 1254 1235 1292 1325 1316 1206 1210 1199 1161 1061 970 939 971 921 812
0 0 0 2 0 0 0 0 1 2 0 0 0 0 0 0 0 0 0 0 0 3 22 7 11 6 223 6 54 28 21 40 108 120 99 57 40 8 0 0 5 81 82 0 0 375 1062 1535 1908 2153 2251 2246 2191 2108 1996 1906 1830 1758 1725 1716 1677 1687 1800 1926 2013 1851 1690 1611 1572 1468 1364 1322 1330 1367 1380 1355 1250 1257 1251 1171 1051 1011 1040 1044 971 876
0 3 1 3 4 1 0 0 0 0 0 0 0 0 0 0 0 0 0 8 13 60 87 65 1 4 69 11 19 30 75 48 117 110 94 60 9 2 0 0 6 69 150 2 0 287 1043 1494 1812 2023 2150 2194 2178 2119 1998 1928 1869 1790 1745 1695 1683 1722 1821 1939 1978 1807 1630 1623 1574 1479 1431 1409 1401 1405 1435 1403 1303 1309 1297 1202 1114 1089 1135 1124 1086 1019
13 3 16 4 8 4 2 0 0 0 0 0 0 0 0 0 0 0 0 197 0 2 7 0 0 0 0 0 5 0 75 66 60 45 30 15 9 2 65 72 110 214 237 217 27 345 968 1482 1746 1876 1980 2070 2106 2092 2040 1964 1904 1846 1754 1716 1729 1744 1809 1906 1904 1697 1616 1621 1579 1513 1492 1452 1441 1470 1494 1450 1346 1362 1316 1223 1156 1150 1206 1162 1104 1054
0 5 1 4 6 6 10 1 0 0 0 0 0 0 0 0 0 0 0 0 0 0 0 0 0 0 2 1 9 14 32 37 30 34 43 25 4 0 80 93 162 330 390 447 166 326 933 1372 1630 1807 1922 1993 2042 2028 2002 1964 1937 1873 1763 1706 1732 1753 1745 1838 1824 1676 1609 1656 1595 1563 1550 1528 1508 1517 1546 1462 1392 1374 1308 1229 1175 1180 1236 1201 1164 1146
1 3 0 0 0 4 2 1 4 5 25 5 0 0 0 0 0 0 0 0 0 0 0 0 0 0 0 0 0 11 74 70 48 51 38 14 0 0 93 141 284 527 618 664 485 220 748 1248 1555 1763 1881 1939 1981 2009 2008 1989 1963 1863 1741 1680 1641 1653 1681 1739 1716 1704 1654 1652 1636 1601 1585 1555 1545 1621 1658 1476 1376 1335 1279 1219 1135 1198 1278 1220 1188 1165
2 3 0 0 0 0 1 0 1 0 0 7 24 18 0 0 0 0 0 0 0 0 0 0 0 0 0 0 1 3 61 96 80 82 19 0 0 12 155 293 571 739 778 866 815 287 632 1084 1426 1701 1857 1934 1991 2011 2016 1983 1934 1849 1752 1664 1597 1576 1576 1633 1674 1673 1661 1653 1641 1628 1615 1564 1585 1680 1730 1564 1282 1258 1178 1091 1106 1182 1226 1208 1211 1110
4 0 1 0 2 0 14 6 0 0 0 0 0 20 44 0 0 0 0 0 0 0 0 0 0 0 0 10 28 68 84 63 95 56 33 3 0 173 350 514 597 680 768 1119 1116 571 518 1011 1362 1644 1818 1926 1987 2027 2016 1970 1884 1840 1752 1677 1592 1558 1542 1557 1608 1648 1641 1703 1670 1653 1595 1512 1543 1631 1769 1679 1455 1197 1011 1027 1081 1151 1172 1213 1254 991
0 0 10 2 2 1 0 4 0 0 0 0 9 79 112 124 18 0 0 0 0 0 0 0 0 0 0 20 52 28 31 39 43 35 0 0 153 372 572 569 597 617 668 1232 1270 776 509 1018 1383 1629 1800 1908 1990 2034 2034 1978 1917 1847 1793 1762 1692 1596 1594 1555 1591 1628 1666 1664 1613 1448 1459 1507 1508 1548 1629 1635 1624 1494 1249 1101 1123 1087 1089 1229 1108 978
0 2 4 10 4 0 0 1 0 0 0 3 20 66 125 126 35 0 0 0 0 0 0 2 0 3 8 18 26 25 4 48 42 22 15 0 170 518 584 557 473 522 647 1037 1504 871 659 1064 1399 1643 1765 1866 1959 2006 2001 1975 1921 1873 1805 1752 1707 1664 1647 1608 1540 1623 1658 1689 1406 1273 1231 1298 1461 1555 1567 1566 1555 1393 1137 1190 1127 1126 1232 988 885 802
0 0 2 7 10 1 0 0 2 1 0 0 5 38 67 74 57 0 0 0 0 0 0 0 0 9 2 0 15 36 61 58 46 36 30 90 385 534 393 443 478 526 581 922 1506 1121 841 1166 1389 1588 1722 1814 1895 1952 1978 1948 1881 1843 1820 1783 1748 1723 1691 1652 1597 1541 1606 1579 1377 1324 1284 1272 1349 1588 1590 1348 1353 1175 1184 1212 1350 1305 1102 899 825 701
2 9 4 1 1 4 0 0 0 0 0 0 0 33 100 140 158 76 0 0 0 0 0 2 11 1 0 0 3 38 40 35 27 53 70 246 501 385 421 393 388 455 536 854 1413 1467 1112 1277 1427 1559 1714 1848 1922 1954 1962 1919 1870 1822 1836 1821 1833 1779 1696 1665 1613 1528 1475 1426 1394 1386 1385 1385 1460 1611 1597 1414 1194 1111 1360 1363 1227 1246 1172 961 789 669
2 1 0 0 3 9 0 1 4 0 0 0 92 114 64 172 229 66 240 158 0 0 5 5 6 218 372 466 525 517 430 14 18 95 147 194 445 500 392 311 260 318 376 480 1030 1631 1539 1386 1505 1641 1757 1850 1911 1950 1962 1900 1840 1824 1847 1859 1800 1705 1679 1666 1618 1543 1492 1448 1436 1455 1469 1452 1457 1600 1641 1410 1039 1111 1159 1255 1256 1225 958 691 704 678
0 0 0 0 20 7 2 0 0 1 1 0 1 51 51 29 12 130 163 49 0 380 213 276 272 264 392 665 733 655 549 338 98 119 308 386 259 264 293 234 184 223 309 284 566 1516 1731 1556 1621 1688 1759 1811 1847 1834 1782 1736 1724 1713 1659 1646 1602 1639 1673 1655 1604 1540 1502 1492 1506 1511 1494 1436 1468 1605 1644 1360 1045 1101 1244 1333 1375 1211 922 695 775 661
0 0 0 0 0 0 0 0 3 0 0 16 3 20 10 8 19 52 44 7 116 156 196 281 170 216 446 623 654 555 554 555 531 252 228 282 198 312 190 186 86 130 229 358 430 865 1708 1733 1675 1732 1765 1806 1810 1774 1687 1650 1620 1596 1530 1500 1563 1659 1687 1652 1600 1544 1510 1510 1530 1533 1483 1454 1492 1620 1640 1424 1333 1276 1157 1223 1389 1286 900 725 793 758
2 0 0 0 2 0 1 1 1 2 5 0 0 14 0 6 21 43 18 200 227 265 113 116 96 97 396 558 480 479 492 370 58 152 121 223 273 194 397 408 367 77 277 274 306 556 1509 1776 1709 1710 1764 1778 1760 1733 1690 1639 1607 1554 1524 1492 1524 1596 1661 1646 1593 1563 1540 1548 1566 1532 1494 1469 1553 1640 1551 1431 1432 1346 1088 1123 1253 1028 719 793 779 695
3 0 0 0 2 0 2 2 3 13 38 41 42 16 0 8 23 46 3 23 159 167 126 12 26 296 156 471 471 407 356 11 108 172 141 175 175 552 676 636 524 237 83 116 292 373 1155 1692 1778 1702 1698 1721 1706 1715 1695 1624 1593 1560 1496 1508 1560 1563 1632 1631 1589 1564 1564 1578 1557 1528 1485 1502 1567 1599 1520 1513 1515 1324 1119 1014 1067 796 878 886 832 778
2 0 0 0 10 2 1 3 2 9 2 5 6 1 0 5 7 31 17 66 33 32 94 138 162 108 168 426 500 366 305 13 80 98 108 162 547 798 792 673 534 439 359 96 169 468 1146 1593 1707 1760 1706 1655 1672 1681 1697 1666 1616 1573 1499 1507 1554 1588 1612 1593 1556 1544 1559 1563 1541 1492 1451 1485 1542 1529 1501 1573 1383 1205 1144 924 876 781 787 644 705 793
1 0 0 0 6 2 0 8 17 7 29 8 4 15 1 0 26 6 10 11 6 38 88 133 187 204 125 353 520 363 262 20 53 115 116 322 933 919 821 766 614 527 589 536 278 516 1294 1628 1652 1721 1717 1674 1646 1675 1654 1633 1603 1523 1496 1493 1546 1590 1587 1550 1529 1511 1503 1483 1466 1468 1481 1481 1490 1494 1559 1361 1084 1088 1044 781 713 799 778 826 962 735
2 0 0 0 8 13 3 1 6 7 2 2 15 23 26 2 0 0 0 5 7 12 52 87 104 85 253 360 552 436 447 484 486 516 358 874 1104 926 848 892 923 692 850 720 415 826 1492 1659 1642 1686 1734 1780 1793 1759 1659 1604 1542 1482 1431 1430 1451 1509 1512 1487 1430 1391 1384 1410 1427 1428 1454 1428 1424 1504 1355 1072 1011 1194 1024 819 758 825 888 1087 895 763
1 0 0 0 5 7 5 2 7 12 0 0 12 15 6 1 0 0 2 16 19 14 6 48 61 121 38 364 397 487 424 463 570 566 750 1136 1165 882 958 1044 1034 866 968 772 441 891 1345 1548 1638 1689 1684 1715 1720 1683 1663 1601 1538 1449 1416 1354 1334 1394 1409 1315 1318 1305 1355 1360 1380 1392 1386 1398 1451 1382 1190 1151 1186 996 882 888 940 967 970 945 782 632
28 0 0 2 10 0 7 16 20 9 0 0 30 2 25 2 4 19 33 25 28 11 3 7 41 135 40 3 328 396 414 425 480 586 739 1132 1138 912 923 1003 1074 937 994 794 435 922 1331 1415 1532 1616 1658 1668 1649 1633 1613 1573 1519 1478 1450 1407 1342 1238 1124 1168 1217 1252 1324 1340 1346 1350 1369 1406 1387 1299 1288 1341 1078 838 784 827 906 959 895 805 714 645
28 0 0 2 24 11 10 13 10 4 0 0 29 16 0 0 13 35 49 18 2 0 4 12 30 36 11 2 225 278 377 413 424 547 740 1114 1141 940 835 950 1172 1045 896 920 644 697 1276 1395 1429 1512 1548 1560 1584 1579 1564 1495 1452 1411 1394 1396 1308 1104 849 973 1133 1078 1294 1352 1359 1362 1392 1371 1330 1335 1374 1346 1254 1004 909 939 1010 1102 917 827 738 562
0 0 0 0 0 21 12 0 0 0 0 0 0 0 2 2 2 36 49 34 19 3 5 1 21 122 111 21 0 0 83 273 395 502 687 1014 1028 1076 996 990 1191 1187 885 725 776 677 1019 1221 1353 1442 1476 1477 1454 1440 1431 1392 1395 1335 1423 1312 1200 887 812 794 1001 1125 1260 1328 1330 1357 1381 1391 1346 1305 1286 1360 1418 1354 1052 979 1038 1024 876 889 677 616
0 0 0 0 0 5 0 0 0 1 0 0 0 3 7 2 0 7 18 13 5 0 5 6 8 26 43 67 69 0 134 229 338 484 557 906 1178 1187 1132 1143 1246 1123 1002 819 906 864 832 1091 1208 1338 1442 1473 1444 1410 1367 1361 1355 1401 1374 1188 1020 994 742 716 853 972 921 1161 1106 1195 1340 1330 1296 1270 1265 1360 1498 1502 1192 1024 1044 989 939 840 752 655
0 0 0 0 0 0 0 0 1 0 0 1 0 0 1 0 0 8 12 8 10 4 4 17 16 37 18 20 22 65 80 258 335 493 568 669 957 1194 1244 1183 1156 1025 958 1011 939 876 870 798 1062 1188 1281 1354 1401 1404 1419 1416 1397 1386 1330 995 941 895 844 774 669 830 794 804 905 1062 1105 1140 1216 1297 1298 1404 1406 1405 1290 1145 979 868 896 849 730 613
0 0 0 1 0 0 0 0 0 0 0 2 1 0 0 0 0 0 0 0 15 31 5 9 0 1 6 47 118 58 108 326 362 494 550 547 708 862 909 957 994 1004 988 972 935 869 841 799 934 1075 1151 1245 1294 1359 1372 1418 1440 1482 1430 1181 826 770 865 762 852 888 799 1057 865 1025 1040 1050 992 1040 1204 1227 1106 1103 1046 1058 954 878 854 773 653 510
0 4 1 0 0 0 0 0 0 0 0 2 8 1 0 0 0 0 0 0 11 20 0 0 1 1 8 60 111 142 102 334 438 533 633 732 771 798 788 769 779 740 705 656 670 673 682 785 815 887 1024 1110 1174 1267 1318 1370 1401 1427 1414 1260 963 672 885 945 905 959 897 810 918 1053 1008 962 1033 1088 985 931 936 943 961 1009 943 821 748 613 470 443
4 0 4 9 4 1 3 0 0 0 0 4 1 0 0 0 0 0 0 0 0 0 0 0 0 1 14 5 58 78 108 0 478 603 618 638 615 578 654 671 682 664 623 633 583 585 567 689 781 797 924 1070 1098 1171 1301 1399 1411 1344 1236 1154 961 824 874 941 904 828 711 771 899 991 1170 1210 1164 1001 900 858 849 944 1005 967 977 836 660 511 452 449
3 1 7 19 11 13 2 0 0 0 0 0 0 1 0 0 0 0 0 0 1 1 0 0 0 0 0 28 37 6 117 3 30 490 524 497 521 654 684 670 650 690 714 696 652 631 618 618 688 758 801 840 842 984 1111 1203 1278 1275 1214 1179 950 814 800 873 895 760 711 713 750 963 1226 1284 1184 1048 934 951 951 968 970 888 780 684 482 448 458 400
Wind_Speed
nan nan nan nan nan nan nan nan nan nan nan nan nan nan nan nan nan nan nan nan nan nan nan nan nan nan nan nan nan nan nan nan nan nan nan nan nan 54 53 51 48 44 40 33 28 27 29 32 36 36 34 34 35 34 28 23 21 18 15 15 11 11 11 11 12 13 14 16 20 22 24 25 26 28 29 28 27 28 27 26 25 25 24 23 21 19
nan nan nan nan nan nan nan nan nan nan nan nan nan nan nan nan nan nan nan nan nan nan nan nan nan nan nan nan nan nan nan nan nan nan nan nan nan nan 52 50 48 46 44 38 36 38 40 37 36 36 35 35 33 29 25 19 19 21 18 14 13 12 11 11 13 13 14 17 19 23 25 26 27 29 30 30 29 28 27 27 26 26 25 24 21 20
nan nan nan nan nan nan nan nan nan nan nan nan nan nan nan nan nan nan nan nan nan nan nan nan nan nan nan nan nan nan nan nan nan nan nan nan nan nan 54 51 50 50 46 42 39 38 35 35 36 36 36 33 28 27 24 24 27 26 20 16 15 13 12 14 15 15 17 21 23 26 28 29 27 25 28 30 30 30 29 28 28 26 26 24 21 20
nan nan nan nan nan nan nan nan nan nan nan nan nan nan nan nan nan nan nan nan nan nan nan nan nan nan nan nan nan nan nan nan nan nan nan nan nan nan nan 52 51 49 45 44 43 37 36 37 37 37 36 33 33 32 30 25 23 27 24 19 17 17 17 18 19 18 22 25 26 30 33 31 29 28 29 31 31 30 30 29 28 26 25 24 22 21
nan nan nan nan nan nan nan nan nan nan nan nan nan nan nan nan nan nan nan nan nan nan nan nan nan nan nan nan nan nan nan nan nan nan nan nan nan nan nan 54 51 48 46 45 44 40 38 37 36 34 34 35 33 31 27 24 24 27 24 24 23 24 22 23 24 23 26 29 30 33 35 35 33 31 31 32 30 31 29 30 28 26 25 24 23 23
nan nan nan nan nan nan nan nan nan nan nan nan nan nan nan nan nan nan nan nan nan nan nan nan nan nan nan nan nan nan nan nan nan nan nan nan nan nan nan nan 53 50 49 46 43 39 37 35 36 36 35 35 35 32 28 25 23 26 29 29 27 27 26 26 27 26 27 29 32 35 37 35 32 32 32 31 32 31 30 30 27 25 24 24 25 25
nan nan nan nan nan nan nan nan nan nan nan nan nan nan nan nan nan nan nan nan nan nan nan nan nan nan nan nan nan nan nan nan nan nan nan nan nan nan nan nan 55 51 52 53 47 43 41 38 38 36 34 34 33 30 30 29 26 25 27 27 26 27 28 28 28 27 28 30 31 33 33 32 31 32 29 29 29 30 29 29 27 25 24 25 27 26
nan nan nan nan nan nan nan nan nan nan nan nan nan nan nan nan nan nan nan nan nan nan nan nan nan nan nan nan nan nan nan nan nan nan nan nan nan nan nan nan nan 52 51 52 49 47 44 40 38 36 35 35 30 30 33 31 28 23 22 24 25 28 28 29 30 29 28 31 31 31 30 31 31 32 33 30 29 28 29 29 27 25 24 26 27 27
nan nan nan nan nan nan nan nan nan nan nan nan nan nan nan nan nan nan nan nan nan nan nan nan nan nan nan nan nan nan nan nan nan nan nan nan nan nan nan nan nan 53 50 51 51 48 47 44 39 38 38 33 30 32 33 32 28 25 26 27 28 28 29 31 32 30 29 30 30 29 30 31 30 33 33 31 28 27 28 28 27 26 26 27 27 27
nan nan nan nan nan nan nan nan nan nan nan nan nan nan nan nan nan nan nan nan nan nan nan nan nan nan nan nan nan nan nan nan nan nan nan nan nan nan nan nan nan nan 55 52 49 49 48 45 40 38 38 36 32 33 33 34 36 36 33 29 28 29 32 34 33 30 29 29 28 28 29 30 31 32 32 29 27 26 27 28 27 26 27 27 27 26
nan nan nan nan nan nan nan nan nan nan nan nan nan nan nan nan nan nan nan nan nan nan nan nan nan nan nan nan nan nan nan nan nan nan nan nan nan nan nan nan nan nan 58 55 53 52 50 48 44 43 42 37 37 39 38 42 41 38 35 31 30 31 35 36 32 29 28 28 27 27 28 29 31 32 32 28 26 26 27 28 26 25 26 26 26 25
nan nan nan nan nan nan nan nan nan nan nan nan nan nan nan nan nan nan nan nan nan nan nan nan nan nan nan nan nan nan nan nan nan nan nan nan nan nan nan nan nan nan 60 57 54 53 53 52 51 52 49 46 44 45 44 44 42 38 36 35 34 34 35 36 31 26 27 27 26 26 26 27 30 32 29 27 27 27 27 26 25 25 26 24 25 24
nan nan nan nan nan nan nan nan nan nan nan nan nan nan nan nan nan nan nan nan nan nan nan nan nan nan nan nan nan nan nan nan nan nan nan nan nan nan nan nan nan nan 62 58 55 54 55 53 51 52 53 55 52 47 43 44 41 37 37 36 35 33 36 36 30 26 26 26 26 26 25 27 30 29 28 26 25 26 25 25 25 24 23 24 24 22
nan nan nan nan nan nan nan nan nan nan nan nan nan nan nan nan nan nan nan nan nan nan nan nan nan nan nan nan nan nan nan nan nan nan nan nan nan nan nan nan nan nan nan 61 58 55 54 53 52 52 53 52 50 46 43 44 45 41 38 37 35 35 37 34 28 25 26 25 26 26 26 28 29 27 26 24 24 24 24 24 23 22 22 23 22 23
nan nan nan nan nan nan nan nan nan nan nan nan nan nan nan nan nan nan nan nan nan nan nan nan nan nan nan nan nan nan nan nan nan nan nan nan nan nan nan nan nan nan nan 63 60 56 53 52 52 54 54 53 50 45 43 45 46 44 41 40 37 38 36 30 26 25 25 26 26 26 26 27 26 25 23 22 23 24 24 22 21 20 22 22 22 23
nan nan nan nan nan nan nan nan nan nan nan nan nan nan nan nan nan nan nan nan nan nan nan nan nan nan nan nan nan nan nan nan nan nan nan nan nan nan nan nan nan nan nan nan 61 58 55 52 52 54 54 53 50 46 45 45 47 46 43 40 38 37 33 29 26 24 25 26 27 27 27 26 25 24 23 23 22 23 23 22 21 21 22 22 21 21
nan nan nan nan nan nan nan nan nan nan nan nan nan nan nan nan nan nan nan nan nan nan nan nan nan nan nan nan nan nan nan nan nan nan nan nan nan nan nan nan nan nan nan nan 62 59 55 53 52 52 52 53 51 49 47 47 47 45 42 41 39 35 31 27 25 24 26 28 27 27 27 25 23 23 23 23 23 24 23 21 21 23 22 22 21 22
nan nan nan nan nan nan nan nan nan nan nan nan nan nan nan 30 nan nan nan nan nan nan nan nan nan nan nan nan nan nan nan nan nan nan nan nan nan nan nan nan nan nan nan nan 62 58 53 50 49 51 52 49 49 48 47 46 44 42 41 39 36 32 28 25 25 25 28 28 28 29 27 24 22 22 23 24 24 25 24 21 23 24 23 21 21 23
nan nan nan nan nan nan nan nan nan nan nan nan nan nan nan nan nan 31 nan nan nan nan nan nan nan nan nan nan nan nan nan nan nan nan nan nan 61 64 nan nan nan nan nan nan nan 60 55 51 49 50 50 48 47 47 45 43 42 42 41 37 31 26 25 28 29 29 30 29 30 30 28 26 23 22 23 24 25 25 23 23 23 23 23 24 22 23
nan nan nan nan nan nan nan nan nan nan nan nan nan nan nan nan nan nan nan 30 nan nan nan nan nan nan nan nan nan 21 31 38 42 47 47 nan nan nan 64 nan nan nan nan nan nan 60 57 53 50 49 48 46 45 46 45 44 44 41 37 33 28 27 32 33 29 28 27 28 31 32 30 27 24 23 24 24 25 23 22 23 24 24 24 22 23 24
nan nan nan nan nan nan nan nan nan nan nan nan nan nan nan nan nan nan nan nan nan nan nan nan nan nan nan nan nan nan 31 40 44 47 48 nan nan nan nan nan nan nan nan nan nan 60 56 54 51 48 46 43 43 43 43 42 39 35 32 28 27 30 31 29 28 28 29 32 31 32 28 27 25 24 25 25 23 23 22 24 24 23 22 24 24 25
nan nan nan nan nan nan nan nan nan nan nan nan nan nan nan nan nan nan nan nan nan nan nan nan nan nan 18 nan nan nan nan 40 45 47 50 nan nan nan nan nan nan nan nan nan nan 60 56 53 50 47 46 45 44 44 42 41 38 33 30 28 28 31 32 30 29 29 31 32 32 30 28 27 25 26 26 25 23 22 23 25 24 23 24 24 25 25
nan nan nan nan nan nan nan nan nan nan nan nan nan nan nan nan nan nan nan nan nan nan nan nan nan nan 18 nan nan nan nan nan 46 48 nan nan nan nan nan nan nan nan nan nan nan 59 55 51 48 46 44 43 42 44 42 38 32 30 28 28 31 33 30 27 28 31 33 32 31 29 29 28 25 25 25 24 23 23 24 25 25 23 24 24 26 26
nan nan nan nan nan nan nan nan nan nan nan nan nan nan nan nan nan nan nan nan nan nan nan nan nan nan nan nan nan nan nan nan 41 45 nan nan nan nan nan nan nan nan 68 nan nan 58 55 51 48 47 44 43 44 45 38 32 30 30 30 31 33 31 29 29 32 34 33 31 30 30 29 26 25 24 23 23 23 23 24 26 25 23 23 25 27 28
nan nan nan nan nan nan nan nan nan nan nan nan nan nan nan nan nan nan nan 21 nan nan nan nan nan nan nan nan nan nan nan nan nan nan nan nan nan nan nan nan 60 62 65 66 nan 56 52 50 46 44 43 43 43 40 35 32 31 31 32 33 32 31 30 31 33 33 31 31 31 29 27 25 24 22 22 23 24 24 26 27 26 24 24 26 26 28
nan nan nan nan nan nan nan nan nan nan nan nan nan nan nan nan nan nan nan nan nan nan nan nan nan nan nan nan nan nan nan nan nan nan nan nan nan nan nan nan 58 61 62 62 59 56 49 45 44 44 44 42 40 36 33 33 33 34 34 32 32 32 32 32 33 32 31 31 31 28 25 24 23 21 22 24 24 25 27 28 26 25 24 26 27 28
nan nan nan nan nan nan nan nan nan nan nan nan nan nan nan nan nan nan nan nan nan nan nan nan nan nan nan nan nan nan nan nan nan nan nan nan nan nan nan 53 54 57 58 58 54 51 48 47 44 42 41 41 38 35 35 34 34 35 35 35 34 33 32 33 34 32 31 31 29 27 24 23 21 21 24 25 25 27 28 28 26 25 25 26 27 29
nan nan nan nan nan nan nan nan nan nan nan nan nan nan nan nan nan nan nan nan nan nan nan nan nan nan nan nan nan nan nan nan nan nan nan nan nan nan 57 55 51 51 56 55 51 47 43 41 41 41 40 39 38 36 36 36 36 36 36 36 35 33 34 36 34 31 30 31 29 26 23 23 22 24 26 27 27 28 29 28 26 25 26 27 28 28
nan nan nan nan nan nan nan nan nan nan nan nan nan nan nan nan nan nan nan nan nan nan nan nan nan nan nan nan nan nan nan nan nan nan nan nan nan 55 56 56 53 53 56 55 49 43 39 38 38 36 35 34 36 36 36 38 38 39 39 38 35 35 34 35 33 31 30 30 27 25 25 25 25 26 28 27 28 29 29 28 26 26 27 27 27 28
nan nan nan nan nan nan nan nan nan nan nan nan nan nan 5 4 nan nan nan nan nan nan nan nan nan nan nan nan nan nan nan nan nan nan nan nan 49 51 53 54 53 52 54 54 48 41 37 34 33 32 31 33 35 35 36 36 36 36 36 35 35 37 37 36 33 31 31 29 27 27 27 27 27 28 29 28 27 28 30 29 27 26 27 27 28 29
nan nan nan nan nan nan nan nan nan nan nan nan nan nan 8 9 nan nan nan nan nan nan nan nan nan nan nan nan nan nan nan nan nan nan nan nan 48 50 52 52 50 47 47 49 47 41 36 34 33 34 34 34 34 34 34 33 33 33 33 33 35 36 36 35 33 31 30 29 28 29 29 28 28 29 28 28 29 30 30 29 27 26 27 27 28 29
nan nan nan nan nan nan nan nan nan nan nan nan nan nan nan nan nan nan nan nan nan nan nan nan nan nan nan nan nan nan nan nan nan nan nan nan 45 47 47 47 45 42 42 44 44 41 36 33 33 34 34 34 33 34 35 34 34 35 34 34 36 37 38 35 33 31 31 30 30 31 30 29 29 29 29 30 29 30 30 29 28 27 26 27 28 29
nan nan nan nan nan nan nan nan nan nan nan nan nan nan nan 4 3 nan nan nan nan nan nan nan nan nan nan nan nan nan nan nan nan nan nan 46 44 43 42 42 40 35 34 38 41 40 36 33 32 31 32 33 33 32 31 33 35 33 34 35 37 39 39 36 34 33 32 32 32 32 31 30 29 29 30 30 31 31 31 29 28 27 27 27 28 30
nan nan nan nan nan nan nan nan nan nan nan nan nan 6 nan 4 3 nan 5 3 nan nan nan nan nan 6 11 15 14 13 17 nan nan nan 38 41 43 42 41 38 33 30 31 36 39 36 37 35 34 33 31 31 31 29 29 30 30 31 33 36 40 41 40 36 34 34 33 33 33 33 32 31 30 30 30 32 33 32 30 28 27 27 27 28 29 29
nan nan nan nan nan nan nan nan nan nan nan nan nan nan nan nan nan 6 10 nan nan 5 6 6 10 12 11 10 10 10 12 13 nan 23 38 36 29 28 31 31 29 30 34 37 39 36 33 35 36 35 33 31 31 35 37 37 38 40 41 42 42 41 38 35 34 34 34 33 34 34 33 31 30 31 31 32 33 32 29 28 28 28 28 29 29 30
nan nan nan nan nan nan nan nan nan nan nan nan nan nan nan nan nan nan nan nan 6 8 5 4 8 11 11 11 11 10 11 14 16 23 28 28 24 25 28 29 nan 31 32 35 36 37 36 35 36 34 32 34 34 36 38 39 41 41 39 38 36 37 36 35 35 34 35 35 35 34 32 30 31 32 32 33 32 30 29 28 29 29 30 30 30 30
nan nan nan nan nan nan nan nan nan nan nan nan nan nan nan nan nan nan nan 6 5 4 15 11 nan nan 11 8 9 8 10 11 nan 23 32 33 30 29 29 31 32 nan 31 35 37 37 38 36 35 34 33 32 33 37 39 43 43 40 38 37 36 36 36 36 36 36 36 35 34 34 32 31 32 33 33 33 31 29 29 30 30 31 32 31 31 32
nan nan nan nan nan nan nan nan nan nan nan nan nan nan nan nan nan nan nan nan 7 9 11 nan nan 4 6 7 6 5 7 nan 21 25 31 38 39 41 39 33 34 35 nan 38 39 38 38 37 37 35 35 35 37 39 42 42 40 39 38 36 37 37 37 37 36 36 36 35 34 33 32 31 33 33 33 33 30 30 30 31 32 32 32 32 32 31
nan nan nan nan nan nan nan nan nan nan nan nan nan nan nan nan nan nan nan nan nan nan nan 4 4 8 11 10 8 9 15 nan nan nan 32 39 43 42 38 38 40 38 35 nan 33 33 32 33 32 34 36 38 38 38 37 38 38 38 36 36 36 35 34 33 34 34 34 33 34 34 33 33 34 34 33 33 32 31 32 32 32 33 32 31 31 30
nan nan nan nan nan nan nan nan nan nan nan nan nan nan nan nan nan nan nan nan nan nan nan 5 8 14 15 13 7 9 13 nan nan 24 33 37 39 39 35 34 40 45 38 34 32 30 30 34 38 38 38 37 35 34 33 34 34 32 32 32 33 32 30 30 30 32 34 37 38 37 35 35 35 35 35 35 34 32 32 34 35 33 32 31 30 30
nan nan nan nan nan nan nan nan nan nan nan nan nan nan nan nan nan nan nan nan nan nan nan nan 12 nan 11 10 8 6 9 11 14 20 26 33 40 42 38 30 31 37 38 31 29 30 31 32 33 35 36 36 35 33 33 32 29 28 29 31 31 27 25 27 34 38 39 39 38 37 35 35 36 36 37 37 34 34 35 35 34 34 33 34 30 27
nan nan nan nan nan nan nan nan nan nan nan nan nan nan nan nan nan nan nan nan nan nan nan nan nan 7 nan 6 8 6 7 10 17 22 24 30 36 38 38 37 36 38 36 29 29 32 32 33 35 37 39 39 36 34 33 31 29 29 31 30 27 24 28 36 40 41 40 39 38 37 36 36 38 39 38 36 36 36 36 35 35 34 34 32 28 27
nan nan nan nan nan nan nan nan nan nan nan nan nan nan nan nan nan nan nan nan nan nan nan nan nan 4 nan nan 8 10 14 17 22 28 30 32 36 39 42 45 44 42 42 37 35 32 32 35 37 36 37 40 38 36 35 34 33 33 34 31 27 32 40 44 43 42 41 41 40 39 38 38 40 41 41 39 36 35 36 36 37 36 33 28 28 31
nan nan nan nan nan nan nan nan nan nan nan nan nan nan nan nan nan nan nan nan nan nan nan nan nan nan nan nan 10 11 11 16 26 31 33 35 37 37 39 43 45 45 45 43 37 33 34 38 42 43 44 44 42 39 39 37 38 40 40 36 43 47 46 43 41 42 43 43 42 41 40 40 42 42 43 39 36 35 38 38 37 36 32 30 31 32
nan nan nan nan nan nan nan nan nan nan nan nan nan nan nan nan nan nan nan nan nan nan nan nan nan 6 7 nan nan nan nan 11 20 27 29 32 36 38 41 43 43 43 43 43 41 38 35 36 39 42 43 42 41 41 40 42 45 48 42 36 42 42 40 38 39 40 42 44 44 42 41 43 44 43 41 38 37 39 41 39 37 35 33 32 31 32
nan nan nan nan nan nan nan nan nan nan nan nan nan nan nan nan nan nan nan nan nan nan nan nan nan nan nan nan nan nan 9 14 17 22 24 26 30 35 39 42 44 44 46 46 44 43 38 34 34 37 40 42 42 43 46 46 46 40 39 45 44 40 39 40 40 38 39 42 43 42 43 45 45 43 40 39 38 38 37 36 34 33 32 32 33 32
nan nan nan nan nan nan nan nan nan nan nan nan nan nan nan nan nan nan nan nan nan nan nan nan nan nan nan nan nan nan nan 10 13 15 16 18 23 27 32 36 43 47 46 45 44 43 39 35 34 35 39 41 43 45 47 46 43 43 44 41 42 42 40 41 40 37 37 40 40 43 45 44 44 44 42 40 41 40 36 33 32 32 33 33 36 36
nan nan nan nan nan nan nan nan nan nan nan nan nan nan nan nan nan nan nan nan nan nan nan nan nan nan nan nan 6 nan 9 8 8 10 11 13 19 25 28 31 37 42 44 42 41 41 40 37 36 37 40 43 47 48 47 45 44 42 40 41 40 40 37 38 41 40 37 35 37 41 42 43 44 43 41 40 40 38 34 31 32 33 33 33 35 35
nan nan nan nan nan nan nan nan nan nan nan nan nan nan nan nan nan nan nan nan nan nan nan nan nan nan nan nan 10 8 10 8 6 5 9 12 16 22 29 31 31 32 34 38 39 40 39 38 38 39 42 48 51 50 46 43 43 42 39 39 43 43 41 39 38 36 35 36 39 40 42 43 41 41 41 41 40 36 32 30 30 31 30 29 29 29
nan nan nan nan nan nan nan nan nan nan nan nan nan nan nan nan nan nan nan nan nan nan nan nan nan nan nan nan nan nan 10 nan 8 6 9 11 13 17 23 29 31 32 32 33 36 38 39 39 38 40 45 48 48 45 43 41 41 40 38 39 42 44 44 41 39 38 39 39 39 40 42 42 41 41 41 40 38 37 38 42 41 35 32 32 32 32
nan nan nan nan nan nan nan nan nan nan nan nan nan nan nan nan nan nan nan nan nan nan nan nan nan nan nan nan nan nan 12 nan nan 7 8 10 12 13 16 22 26 28 30 30 30 30 32 33 33 35 38 42 42 41 40 39 40 41 40 40 39 40 42 42 41 40 42 41 38 39 41 42 42 41 41 39 37 35 36 36 40 42 38 35 32 33
Wind_Direction
nan nan nan nan nan nan nan nan nan nan nan nan nan nan nan nan nan nan nan nan nan nan nan nan nan nan nan nan nan nan nan nan nan nan nan nan nan 220 220 223 227 230 230 223 221 226 226 222 220 219 219 223 229 228 226 232 236 229 229 238 247 247 254 261 272 276 288 296 294 295 300 301 303 306 307 309 306 305 309 308 308 312 309 305 301 298
nan nan nan nan nan nan nan nan nan nan nan nan nan nan nan nan nan nan nan nan nan nan nan nan nan nan nan nan nan nan nan nan nan nan nan nan nan nan 221 221 224 227 224 221 219 224 227 223 223 223 223 225 229 223 226 234 232 221 220 225 228 236 251 260 263 267 290 303 304 298 299 297 301 304 308 308 304 304 304 306 308 311 308 304 299 296
nan nan nan nan nan nan nan nan nan nan nan nan nan nan nan nan nan nan nan nan nan nan nan nan nan nan nan nan nan nan nan nan nan nan nan nan nan nan 219 220 222 224 223 221 219 225 229 226 221 221 222 220 218 217 222 225 222 220 220 217 222 234 250 252 251 267 302 302 294 296 295 297 292 291 298 300 300 300 302 304 307 308 307 301 295 293
nan nan nan nan nan nan nan nan nan nan nan nan nan nan nan nan nan nan nan nan nan nan nan nan nan nan nan nan nan nan nan nan nan nan nan nan nan nan nan 220 221 224 224 224 223 223 227 226 219 218 219 217 214 214 215 220 224 222 224 225 230 238 248 251 250 267 293 295 287 289 292 290 288 290 291 291 294 296 297 301 303 305 305 297 291 289
nan nan nan nan nan nan nan nan nan nan nan nan nan nan nan nan nan nan nan nan nan nan nan nan nan nan nan nan nan nan nan nan nan nan nan nan nan nan nan 216 220 223 225 225 223 219 225 227 220 217 218 219 216 214 216 219 223 222 230 233 238 240 245 249 253 267 286 289 285 284 284 283 278 280 288 291 294 296 298 298 301 307 301 292 286 285
nan nan nan nan nan nan nan nan nan nan nan nan nan nan nan nan nan nan nan nan nan nan nan nan nan nan nan nan nan nan nan nan nan nan nan nan nan nan nan nan 216 217 221 227 225 223 227 225 220 216 218 220 214 212 215 219 222 225 227 232 237 238 243 250 255 268 285 292 290 288 288 292 292 292 295 302 301 298 299 301 299 299 295 286 281 282
nan nan nan nan nan nan nan nan nan nan nan nan nan nan nan nan nan nan nan nan nan nan nan nan nan nan nan nan nan nan nan nan nan nan nan nan nan nan nan nan 216 217 217 219 220 222 223 223 226 223 219 222 220 214 218 218 219 226 228 232 236 238 243 250 257 272 286 291 290 293 292 290 292 293 290 289 292 295 294 294 299 295 287 281 282 282
nan nan nan nan nan nan nan nan nan nan nan nan nan nan nan nan nan nan nan nan nan nan nan nan nan nan nan nan nan nan nan nan nan nan nan nan nan nan nan nan nan 217 218 223 221 217 221 226 230 229 222 223 224 225 225 222 223 231 235 238 238 237 246 252 259 275 288 292 289 289 288 288 291 291 289 291 290 290 290 293 294 289 282 278 279 284
nan nan nan nan nan nan nan nan nan nan nan nan nan nan nan nan nan nan nan nan nan nan nan nan nan nan nan nan nan nan nan nan nan nan nan nan nan nan nan nan nan 217 219 222 222 220 220 222 223 226 226 224 228 232 233 231 231 237 239 240 239 243 251 255 263 276 288 288 287 287 286 288 285 283 284 283 284 286 287 289 286 285 279 276 279 286
nan nan nan nan nan nan nan nan nan nan nan nan nan nan nan nan nan nan nan nan nan nan nan nan nan nan nan nan nan nan nan nan nan nan nan nan nan nan nan nan nan nan 217 218 221 222 221 219 222 226 226 227 232 237 241 240 237 239 244 248 249 250 253 256 265 278 287 286 284 288 290 291 284 280 279 282 286 286 286 288 286 281 278 279 283 288
nan nan nan nan nan nan nan nan nan nan nan nan nan nan nan nan nan nan nan nan nan nan nan nan nan nan nan nan nan nan nan nan nan nan nan nan nan nan nan nan nan nan 214 216 217 219 220 218 218 222 225 228 233 235 239 240 240 243 248 252 255 255 254 260 272 284 288 282 282 285 289 290 286 283 283 285 287 285 284 285 283 281 279 282 287 286
nan nan nan nan nan nan nan nan nan nan nan nan nan nan nan nan nan nan nan nan nan nan nan nan nan nan nan nan nan nan nan nan nan nan nan nan nan nan nan nan nan nan 211 214 217 218 220 218 215 217 218 224 231 232 236 238 238 243 248 252 258 259 265 269 278 285 282 277 278 279 286 288 286 287 287 291 290 287 287 284 283 277 276 281 283 283
nan nan nan nan nan nan nan nan nan nan nan nan nan nan nan nan nan nan nan nan nan nan nan nan nan nan nan nan nan nan nan nan nan nan nan nan nan nan nan nan nan nan 209 212 215 217 219 219 219 221 222 224 228 231 235 239 241 247 252 258 265 268 270 275 281 284 277 273 275 278 282 284 285 289 292 291 289 285 284 281 280 279 281 281 282 283
nan nan nan nan nan nan nan nan nan nan nan nan nan nan nan nan nan nan nan nan nan nan nan nan nan nan nan nan nan nan nan nan nan nan nan nan nan nan nan nan nan nan nan 210 213 216 218 219 218 223 227 229 230 233 236 239 242 248 254 260 266 269 271 275 281 280 273 271 271 273 278 282 284 289 290 287 285 282 280 280 282 284 286 287 286 285
nan nan nan nan nan nan nan nan nan nan nan nan nan nan nan nan nan nan nan nan nan nan nan nan nan nan nan nan nan nan nan nan nan nan nan nan nan nan nan nan nan nan nan 210 211 213 216 218 219 222 228 230 231 234 238 238 241 247 254 259 265 268 273 281 284 275 272 266 267 269 274 279 282 286 285 282 279 280 279 276 279 280 278 281 281 283
nan nan nan nan nan nan nan nan nan nan nan nan nan nan nan nan nan nan nan nan nan nan nan nan nan nan nan nan nan nan nan nan nan nan nan nan nan nan nan nan nan nan nan nan 212 213 213 215 218 222 227 232 233 235 236 240 242 248 255 261 268 274 277 280 281 277 270 264 262 265 273 280 283 281 278 274 272 274 276 278 279 279 280 281 284 279
nan nan nan nan nan nan nan nan nan nan nan nan nan nan nan nan nan nan nan nan nan nan nan nan nan nan nan nan nan nan nan nan nan nan nan nan nan nan nan nan nan nan nan nan 211 214 215 212 215 222 228 231 234 234 236 240 245 252 257 261 266 270 271 278 285 279 264 260 261 264 268 275 280 283 284 278 276 274 271 275 276 277 281 280 280 276
nan nan nan nan nan nan nan nan nan nan nan nan nan nan nan 247 nan nan nan nan nan nan nan nan nan nan nan nan nan nan nan nan nan nan nan nan nan nan nan nan nan nan nan nan 213 214 217 216 215 219 224 230 235 237 238 242 245 250 256 262 268 271 277 280 280 271 259 258 259 259 265 273 279 279 277 274 275 271 271 270 269 270 276 280 277 276
nan nan nan nan nan nan nan nan nan nan nan nan nan nan nan nan nan 245 nan nan nan nan nan nan nan nan nan nan nan nan nan nan nan nan nan nan 204 205 nan nan nan nan nan nan nan 213 214 216 216 219 223 227 231 235 239 243 247 248 250 254 260 270 275 272 262 255 249 250 251 255 263 270 271 270 271 269 271 272 274 275 274 278 277 275 280 280
nan nan nan nan nan nan nan nan nan nan nan nan nan nan nan nan nan nan nan 246 nan nan nan nan nan nan nan nan nan 214 217 207 200 195 198 nan nan nan 205 nan nan nan nan nan nan 214 213 214 216 219 221 225 230 232 233 238 241 246 250 254 255 255 254 257 260 257 254 251 251 253 256 263 270 271 271 272 274 272 274 274 276 277 281 289 283 281
nan nan nan nan nan nan nan nan nan nan nan nan nan nan nan nan nan nan nan nan nan nan nan nan nan nan nan nan nan nan 199 198 197 193 196 nan nan nan nan nan nan nan nan nan nan 215 215 215 215 217 220 222 226 231 235 238 244 245 246 249 253 260 262 260 257 254 250 249 250 254 260 264 268 272 267 268 271 271 269 270 274 281 285 278 281 281
nan nan nan nan nan nan nan nan nan nan nan nan nan nan nan nan nan nan nan nan nan nan nan nan nan nan 205 nan nan nan nan 185 192 193 196 nan nan nan nan nan nan nan nan nan nan 215 216 217 217 217 218 219 223 228 232 234 237 239 241 245 251 254 253 254 252 252 251 250 250 254 257 261 263 267 266 270 271 269 267 270 275 278 278 284 281 283
nan nan nan nan nan nan nan nan nan nan nan nan nan nan nan nan nan nan nan nan nan nan nan nan nan nan 212 nan nan nan nan nan 186 193 nan nan nan nan nan nan nan nan nan nan nan 214 216 218 219 219 221 223 225 229 232 234 237 240 244 246 246 250 250 250 251 250 249 249 250 253 254 257 261 265 269 271 267 266 267 269 272 276 282 282 280 280
nan nan nan nan nan nan nan nan nan nan nan nan nan nan nan nan nan nan nan nan nan nan nan nan nan nan nan nan nan nan nan nan 195 195 nan nan nan nan nan nan nan nan 205 nan nan 213 214 216 218 219 221 224 227 231 234 235 236 239 240 242 243 246 244 242 244 247 249 250 252 253 254 258 259 265 268 270 265 267 266 269 271 274 279 278 276 279
nan nan nan nan nan nan nan nan nan nan nan nan nan nan nan nan nan nan nan 250 nan nan nan nan nan nan nan nan nan nan nan nan nan nan nan nan nan nan nan nan 204 205 206 208 nan 212 214 215 217 219 222 225 230 232 233 233 235 237 239 238 239 240 239 239 242 246 248 251 254 254 255 259 262 267 267 266 261 265 265 268 269 272 277 276 278 280
nan nan nan nan nan nan nan nan nan nan nan nan nan nan nan nan nan nan nan nan nan nan nan nan nan nan nan nan nan nan nan nan nan nan nan nan nan nan nan nan 203 206 206 209 210 210 211 214 216 218 221 224 228 232 232 232 233 234 236 238 238 239 237 240 243 246 248 250 254 254 257 258 262 266 265 263 261 264 264 265 269 273 273 279 281 280
nan nan nan nan nan nan nan nan nan nan nan nan nan nan nan nan nan nan nan nan nan nan nan nan nan nan nan nan nan nan nan nan nan nan nan nan nan nan nan 201 203 205 207 208 210 209 208 210 215 219 222 223 225 227 227 230 233 234 235 237 236 234 234 238 243 245 247 250 254 253 254 257 261 259 259 259 258 257 260 264 267 273 276 277 281 283
nan nan nan nan nan nan nan nan nan nan nan nan nan nan nan nan nan nan nan nan nan nan nan nan nan nan nan nan nan nan nan nan nan nan nan nan nan nan 197 199 201 206 209 208 208 210 209 209 214 218 222 223 223 223 224 227 231 235 236 238 237 234 233 234 240 243 245 249 251 250 251 252 253 253 254 254 254 256 259 262 266 271 271 275 279 281
nan nan nan nan nan nan nan nan nan nan nan nan nan nan nan nan nan nan nan nan nan nan nan nan nan nan nan nan nan nan nan nan nan nan nan nan nan 195 197 198 200 205 206 202 199 204 206 210 215 219 222 225 226 226 226 225 227 228 229 231 232 230 233 237 241 243 246 248 251 251 248 245 246 247 250 253 253 254 259 262 265 269 272 275 276 274
nan nan nan nan nan nan nan nan nan nan nan nan nan nan 58 327 nan nan nan nan nan nan nan nan nan nan nan nan nan nan nan nan nan nan nan nan 192 194 198 199 201 205 205 196 190 196 202 204 210 214 217 220 225 228 228 227 228 231 234 233 228 226 228 232 235 239 243 247 250 249 247 245 244 248 251 252 254 255 257 259 264 269 271 275 275 276
nan nan nan nan nan nan nan nan nan nan nan nan nan nan 39 29 nan nan nan nan nan nan nan nan nan nan nan nan nan nan nan nan nan nan nan nan 191 194 199 201 202 207 209 197 188 193 198 200 202 203 207 213 221 227 228 226 228 231 233 230 228 228 230 233 234 236 240 244 246 248 247 243 243 247 251 252 251 253 257 261 263 267 271 273 274 276
nan nan nan nan nan nan nan nan nan nan nan nan nan nan nan nan nan nan nan nan nan nan nan nan nan nan nan nan nan nan nan nan nan nan nan nan 192 197 200 201 202 205 208 196 188 193 198 200 201 201 203 211 218 224 225 224 225 229 229 227 225 226 229 232 234 237 240 243 245 248 249 244 244 246 249 250 252 254 257 259 263 267 270 271 273 273
nan nan nan nan nan nan nan nan nan nan nan nan nan nan nan 53 25 nan nan nan nan nan nan nan nan nan nan nan nan nan nan nan nan nan nan 186 189 194 198 199 198 199 203 198 191 193 197 200 202 205 208 212 215 219 223 225 224 225 224 223 223 226 230 232 234 236 238 241 245 248 248 244 243 245 247 250 251 252 255 260 264 268 269 272 272 272
nan nan nan nan nan nan nan nan nan nan nan nan nan 340 nan 342 335 nan 69 40 nan nan nan nan nan 178 174 178 191 182 180 nan nan nan 197 191 184 185 192 196 191 189 195 197 193 195 197 200 204 207 208 207 206 206 211 219 221 219 219 220 223 228 230 232 233 235 238 241 245 247 247 244 243 243 245 248 251 253 257 262 266 267 267 267 269 273
nan nan nan nan nan nan nan nan nan nan nan nan nan nan nan nan nan 49 86 nan nan 262 215 162 141 150 151 148 166 177 174 166 nan 190 186 191 184 182 186 185 184 188 192 192 191 195 201 201 201 200 198 199 203 205 209 210 212 214 215 218 221 224 228 230 232 235 238 242 245 247 246 244 242 243 243 247 251 255 259 262 262 266 267 268 272 274
nan nan nan nan nan nan nan nan nan nan nan nan nan nan nan nan nan nan nan nan 268 264 222 182 130 127 134 150 165 176 175 162 171 181 186 197 197 193 193 188 nan 187 190 190 194 191 195 198 198 195 193 199 207 211 213 215 217 219 219 221 224 224 225 227 230 233 237 240 244 247 246 244 242 243 244 247 250 255 260 262 264 266 265 266 267 268
nan nan nan nan nan nan nan nan nan nan nan nan nan nan nan nan nan nan nan 209 227 225 194 182 nan nan 126 156 174 167 161 170 nan 193 217 213 204 198 199 187 183 nan 185 183 187 186 185 192 195 196 202 208 214 218 217 219 222 221 221 222 224 225 224 225 227 230 234 239 243 245 244 243 242 242 245 248 251 254 258 259 260 261 262 266 268 271
nan nan nan nan nan nan nan nan nan nan nan nan nan nan nan nan nan nan nan nan 266 244 221 nan nan 94 112 144 168 185 180 nan 209 198 209 198 195 188 188 193 193 187 nan 177 182 186 186 192 197 203 210 216 219 222 222 224 225 225 222 221 221 224 224 226 228 229 233 238 242 243 242 241 242 243 244 247 251 253 253 255 256 261 263 269 270 271
nan nan nan nan nan nan nan nan nan nan nan nan nan nan nan nan nan nan nan nan nan nan nan 203 156 155 141 135 160 219 231 nan nan nan 207 194 185 187 189 183 189 192 181 nan 184 190 190 194 204 209 215 220 223 223 224 225 226 223 219 218 218 220 224 227 229 231 235 238 240 240 239 238 240 242 244 246 247 249 253 255 256 258 262 267 271 274
nan nan nan nan nan nan nan nan nan nan nan nan nan nan nan nan nan nan nan nan nan nan nan 175 153 152 143 138 158 215 245 nan nan 200 199 188 187 187 191 186 183 181 184 177 189 193 199 202 209 214 219 222 221 221 222 222 222 222 218 216 217 218 220 225 229 232 234 235 237 236 236 237 240 241 243 244 245 246 250 251 253 259 264 266 268 271
nan nan nan nan nan nan nan nan nan nan nan nan nan nan nan nan nan nan nan nan nan nan nan nan 166 nan 156 159 188 216 274 253 209 196 191 188 189 186 191 198 187 176 179 186 190 201 211 216 221 224 224 222 222 221 221 220 222 223 219 218 218 218 220 223 225 227 231 233 235 235 236 237 239 240 240 243 244 244 246 249 255 259 264 265 265 268
nan nan nan nan nan nan nan nan nan nan nan nan nan nan nan nan nan nan nan nan nan nan nan nan nan 186 nan 187 187 181 171 200 203 203 196 193 195 192 192 194 191 186 188 196 199 205 211 218 222 223 222 222 224 224 225 226 225 224 223 223 222 221 222 225 225 226 229 233 233 234 235 236 235 239 239 240 241 244 246 248 253 258 262 268 274 275
nan nan nan nan nan nan nan nan nan nan nan nan nan nan nan nan nan nan nan nan nan nan nan nan nan 172 nan nan 159 150 149 165 192 198 197 194 196 196 197 199 196 192 189 202 216 210 218 220 224 228 228 225 226 226 227 228 228 227 226 224 222 221 223 225 226 226 227 230 232 232 233 234 237 237 236 238 241 247 250 251 255 259 264 265 260 260
nan nan nan nan nan nan nan nan nan nan nan nan nan nan nan nan nan nan nan nan nan nan nan nan nan nan nan nan 132 135 135 152 170 188 193 193 196 198 201 206 203 199 201 197 206 218 220 222 224 226 221 222 225 229 231 231 228 226 226 224 220 225 227 226 228 228 227 227 230 231 231 232 236 238 239 242 243 244 249 251 253 257 260 258 260 268
nan nan nan nan nan nan nan nan nan nan nan nan nan nan nan nan nan nan nan nan nan nan nan nan nan 134 134 nan nan nan nan 127 152 170 183 189 194 200 201 204 206 199 200 203 200 207 216 225 228 226 225 223 228 231 234 234 235 232 228 225 229 232 231 231 231 232 232 230 229 230 230 231 234 237 241 243 244 243 246 250 255 259 260 261 261 265
nan nan nan nan nan nan nan nan nan nan nan nan nan nan nan nan nan nan nan nan nan nan nan nan nan nan nan nan nan nan 108 110 131 154 171 184 191 196 202 202 206 205 200 204 212 213 212 222 229 229 227 225 229 232 233 233 235 238 231 225 225 232 234 231 235 235 238 237 233 231 231 232 234 238 243 244 241 245 250 257 260 263 263 262 263 265
nan nan nan nan nan nan nan nan nan nan nan nan nan nan nan nan nan nan nan nan nan nan nan nan nan nan nan nan nan nan nan 114 111 125 150 178 191 198 201 202 205 214 217 213 211 217 220 226 232 230 229 230 229 233 233 234 232 233 234 235 236 233 234 238 240 240 238 239 235 232 232 235 234 236 239 241 240 242 246 252 259 265 267 264 262 260
nan nan nan nan nan nan nan nan nan nan nan nan nan nan nan nan nan nan nan nan nan nan nan nan nan nan nan nan 113 nan 135 138 124 119 134 158 183 199 206 207 206 210 218 222 223 223 225 226 226 228 229 231 233 234 235 234 235 237 241 245 251 256 251 244 241 239 238 245 239 235 235 235 240 241 237 239 242 244 246 251 259 264 268 267 262 266
nan nan nan nan nan nan nan nan nan nan nan nan nan nan nan nan nan nan nan nan nan nan nan nan nan nan nan nan 102 122 126 140 165 165 145 147 162 185 200 206 209 212 214 220 225 225 221 220 223 225 228 229 233 236 237 239 241 244 248 248 250 257 263 259 251 245 243 242 242 240 237 238 238 237 238 238 239 243 250 259 261 266 269 265 268 280
nan nan nan nan nan nan nan nan nan nan nan nan nan nan nan nan nan nan nan nan nan nan nan nan nan nan nan nan nan nan 121 nan 175 195 171 160 150 161 180 190 196 201 209 218 222 223 221 219 222 227 229 230 235 239 241 243 245 248 250 249 249 255 262 263 258 251 245 241 240 236 235 236 237 237 238 240 241 242 235 229 239 252 264 263 261 265
nan nan nan nan nan nan nan nan nan nan nan nan nan nan nan nan nan nan nan nan nan nan nan nan nan nan nan nan nan nan 145 nan nan 176 168 166 161 157 171 179 183 187 192 199 203 209 211 213 217 224 229 231 234 239 243 246 249 249 253 257 261 265 267 268 265 259 250 244 240 236 232 232 234 234 234 237 241 241 244 242 237 239 252 261 263 273